Time,TemperatureF,DewpointF,PressureIn,WindDirection,WindDirectionDegrees,WindSpeedMPH,WindSpeedGustMPH,Humidity,HourlyPrecipIn,Conditions,Clouds,dailyrainin,SoftwareType,DateUTC
2016-09-24 00:24:00,46.0,45.0,-100.00,WSW,250,8.0,12.0,98,-99.99,,,-99.99,,2016-09-24 06:24:00,
2016-09-24 00:50:00,46.0,45.0,-100.00,WSW,250,8.0,12.0,98,-99.99,,,-99.99,,2016-09-24 06:50:00,
2016-09-24 00:55:00,45.0,44.0,-100.00,SW,226,6.0,15.0,98,-99.99,,,-99.99,,2016-09-24 06:55:00,
2016-09-24 01:24:00,45.0,44.0,-100.00,SW,226,6.0,15.0,98,-99.99,,,-99.99,,2016-09-24 07:24:00,
2016-09-24 01:37:00,45.0,44.0,-100.00,SW,226,6.0,15.0,98,-99.99,,,-99.99,,2016-09-24 07:37:00,
2016-09-24 01:45:00,45.0,44.0,-100.00,SW,226,6.0,15.0,98,-99.99,,,-99.99,,2016-09-24 07:45:00,
2016-09-24 01:55:00,45.0,45.0,-100.00,West,275,9.0,-999.0,99,-99.99,,,-99.99,,2016-09-24 07:55:00,
2016-09-24 02:24:00,45.0,45.0,-100.00,West,275,9.0,14.0,99,-99.99,,,-99.99,,2016-09-24 08:24:00,
2016-09-24 02:34:00,45.0,45.0,-100.00,West,275,9.0,14.0,99,-99.99,,,-99.99,,2016-09-24 08:34:00,
2016-09-24 02:46:00,45.0,45.0,-100.00,West,275,9.0,14.0,99,-99.99,,,-99.99,,2016-09-24 08:46:00,
2016-09-24 02:55:00,45.0,45.0,-100.00,West,267,4.0,12.0,99,-99.99,,,-99.99,,2016-09-24 08:55:00,
2016-09-24 03:23:00,45.0,45.0,-100.00,West,267,4.0,12.0,99,-99.99,,,-99.99,,2016-09-24 09:23:00,
2016-09-24 03:37:00,45.0,45.0,-100.00,West,267,4.0,12.0,99,-99.99,,,-99.99,,2016-09-24 09:37:00,
2016-09-24 03:45:00,45.0,45.0,-100.00,West,267,4.0,12.0,99,-99.99,,,-99.99,,2016-09-24 09:45:00,
2016-09-24 04:25:00,45.0,45.0,-100.00,SSW,200,9.0,13.0,99,-99.99,,,-99.99,,2016-09-24 10:25:00,
2016-09-24 05:47:00,43.0,43.0,-100.00,SSW,207,14.0,23.0,99,-99.99,,,-99.99,,2016-09-24 11:47:00,
2016-09-24 05:54:00,43.0,43.0,-100.00,SSW,207,14.0,23.0,99,-99.99,,,-99.99,,2016-09-24 11:54:00,
2016-09-24 05:55:00,41.0,41.0,-100.00,WSW,243,12.0,27.0,99,-99.99,,,-99.99,,2016-09-24 11:55:00,
2016-09-24 06:26:00,41.0,41.0,-100.00,WSW,243,12.0,27.0,99,-99.99,,,-99.99,,2016-09-24 12:26:00,
2016-09-24 06:35:00,41.0,41.0,-100.00,WSW,243,12.0,27.0,99,-99.99,,,-99.99,,2016-09-24 12:35:00,
2016-09-24 06:46:00,41.0,41.0,-100.00,WSW,243,12.0,27.0,99,-99.99,,,-99.99,,2016-09-24 12:46:00,
2016-09-24 06:55:00,41.0,41.0,-100.00,NW,305,8.0,-999.0,100,-99.99,,,-99.99,,2016-09-24 12:55:00,
2016-09-24 07:24:00,41.0,41.0,-100.00,NW,305,8.0,23.0,100,-99.99,,,-99.99,,2016-09-24 13:24:00,
2016-09-24 07:35:00,41.0,41.0,-100.00,NW,305,8.0,23.0,100,-99.99,,,-99.99,,2016-09-24 13:35:00,
2016-09-24 07:47:00,41.0,41.0,-100.00,NW,305,8.0,23.0,100,-99.99,,,-99.99,,2016-09-24 13:47:00,
2016-09-24 08:24:00,41.0,41.0,-100.00,WSW,241,12.0,17.0,100,-99.99,,,-99.99,,2016-09-24 14:24:00,
2016-09-24 08:34:00,41.0,41.0,-100.00,WSW,241,12.0,17.0,100,-99.99,,,-99.99,,2016-09-24 14:34:00,
2016-09-24 08:44:00,41.0,41.0,-100.00,WSW,241,12.0,17.0,100,-99.99,,,-99.99,,2016-09-24 14:44:00,
2016-09-24 08:54:00,41.0,41.0,-100.00,WSW,241,12.0,17.0,100,-99.99,,,-99.99,,2016-09-24 14:54:00,
2016-09-24 09:24:00,41.0,41.0,-100.00,West,275,10.0,22.0,100,-99.99,,,-99.99,,2016-09-24 15:24:00,
2016-09-24 09:37:00,41.0,41.0,-100.00,West,275,10.0,22.0,100,-99.99,,,-99.99,,2016-09-24 15:37:00,
2016-09-24 09:53:00,41.0,41.0,-100.00,West,275,10.0,-999.0,100,-99.99,,,-99.99,,2016-09-24 15:53:00,
2016-09-24 09:55:00,42.0,42.0,-100.00,WSW,244,10.0,19.0,100,-99.99,,,-99.99,,2016-09-24 15:55:00,
2016-09-24 10:24:00,42.0,42.0,-100.00,WSW,244,10.0,19.0,100,-99.99,,,-99.99,,2016-09-24 16:24:00,
2016-09-24 11:26:00,44.0,44.0,-100.00,WSW,242,11.0,20.0,99,-99.99,,,-99.99,,2016-09-24 17:26:00,
2016-09-24 11:45:00,44.0,44.0,-100.00,WSW,242,11.0,20.0,99,-99.99,,,-99.99,,2016-09-24 17:45:00,
2016-09-24 11:55:00,45.0,43.0,-100.00,WSW,238,13.0,22.0,91,-99.99,,,-99.99,,2016-09-24 17:55:00,
2016-09-24 12:25:00,45.0,43.0,-100.00,WSW,238,13.0,22.0,91,-99.99,,,-99.99,,2016-09-24 18:25:00,
2016-09-24 12:35:00,45.0,43.0,-100.00,WSW,238,13.0,22.0,91,-99.99,,,-99.99,,2016-09-24 18:35:00,
2016-09-24 12:45:00,45.0,43.0,-100.00,WSW,238,13.0,22.0,91,-99.99,,,-99.99,,2016-09-24 18:45:00,
2016-09-24 12:55:00,45.0,42.0,-100.00,WSW,240,13.0,21.0,90,-99.99,,,-99.99,,2016-09-24 18:55:00,
2016-09-24 13:24:00,45.0,42.0,-100.00,WSW,240,13.0,21.0,90,-99.99,,,-99.99,,2016-09-24 19:24:00,
2016-09-24 13:35:00,45.0,42.0,-100.00,WSW,240,13.0,21.0,90,-99.99,,,-99.99,,2016-09-24 19:35:00,
2016-09-24 13:45:00,45.0,42.0,-100.00,WSW,240,13.0,21.0,90,-99.99,,,-99.99,,2016-09-24 19:45:00,
2016-09-24 13:55:00,43.0,42.0,-100.00,WSW,251,18.0,29.0,96,-99.99,,,-99.99,,2016-09-24 19:55:00,
2016-09-24 14:24:00,43.0,42.0,-100.00,WSW,251,18.0,29.0,96,-99.99,,,-99.99,,2016-09-24 20:24:00,
2016-09-24 14:44:00,43.0,42.0,-100.00,WSW,251,18.0,29.0,96,-99.99,,,-99.99,,2016-09-24 20:44:00,
2016-09-24 15:23:00,41.0,40.0,-100.00,West,271,19.0,30.0,97,-99.99,,,-99.99,,2016-09-24 21:23:00,
2016-09-24 15:37:00,41.0,40.0,-100.00,West,271,19.0,30.0,97,-99.99,,,-99.99,,2016-09-24 21:37:00,
2016-09-24 15:54:00,41.0,40.0,-100.00,West,271,19.0,30.0,97,-99.99,,,-99.99,,2016-09-24 21:54:00,
2016-09-24 16:24:00,40.0,39.0,-100.00,West,275,17.0,33.0,97,-99.99,,,-99.99,,2016-09-24 22:24:00,
2016-09-24 16:49:00,40.0,39.0,-100.00,West,275,17.0,-999.0,97,-99.99,,,-99.99,,2016-09-24 22:49:00,
2016-09-24 16:55:00,40.0,39.0,-100.00,West,265,20.0,-999.0,97,-99.99,,,-99.99,,2016-09-24 22:55:00,
2016-09-24 17:38:00,40.0,39.0,-100.00,West,265,20.0,34.0,97,-99.99,,,-99.99,,2016-09-24 23:38:00,
2016-09-24 17:45:00,40.0,39.0,-100.00,West,265,20.0,34.0,97,-99.99,,,-99.99,,2016-09-24 23:45:00,
2016-09-24 18:24:00,39.0,38.0,-100.00,West,275,22.0,33.0,97,-99.99,,,-99.99,,2016-09-25 00:24:00,
2016-09-24 18:37:00,39.0,38.0,-100.00,West,275,22.0,33.0,97,-99.99,,,-99.99,,2016-09-25 00:37:00,
2016-09-24 18:46:00,39.0,38.0,-100.00,West,275,22.0,33.0,97,-99.99,,,-99.99,,2016-09-25 00:46:00,
2016-09-24 18:55:00,39.0,38.0,-100.00,West,277,17.0,-999.0,97,-99.99,,,-99.99,,2016-09-25 00:55:00,
2016-09-24 19:24:00,39.0,38.0,-100.00,West,277,17.0,35.0,97,-99.99,,,-99.99,,2016-09-25 01:24:00,
2016-09-24 19:35:00,39.0,38.0,-100.00,West,277,17.0,35.0,97,-99.99,,,-99.99,,2016-09-25 01:35:00,
2016-09-24 19:45:00,39.0,38.0,-100.00,West,277,17.0,35.0,97,-99.99,,,-99.99,,2016-09-25 01:45:00,
2016-09-24 19:55:00,39.0,38.0,-100.00,WNW,283,20.0,36.0,96,-99.99,,,-99.99,,2016-09-25 01:55:00,
2016-09-24 20:24:00,39.0,38.0,-100.00,WNW,283,20.0,36.0,96,-99.99,,,-99.99,,2016-09-25 02:24:00,
2016-09-24 20:34:00,39.0,38.0,-100.00,WNW,283,20.0,36.0,96,-99.99,,,-99.99,,2016-09-25 02:34:00,
2016-09-24 20:55:00,40.0,39.0,-100.00,West,279,18.0,35.0,97,-99.99,,,-99.99,,2016-09-25 02:55:00,
2016-09-24 21:24:00,40.0,39.0,-100.00,West,279,18.0,35.0,97,-99.99,,,-99.99,,2016-09-25 03:24:00,
2016-09-24 21:37:00,40.0,39.0,-100.00,West,279,18.0,35.0,97,-99.99,,,-99.99,,2016-09-25 03:37:00,
2016-09-24 21:44:00,40.0,39.0,-100.00,West,279,18.0,35.0,97,-99.99,,,-99.99,,2016-09-25 03:44:00,